Погода в Елабуге

Погода в Елабуге : погода сейчас, прогноз погоды и архив. Всё, что Вы хотите узнать о погоде в Елабуге!

Поиск расширенной информации на нашем сайте:

Другие новости

Новости СМИ2

Главная страница сайта

Новости сайта

03.07.2017

Напоминаем, что на нашем специализированном сайте Метеоцентр.Азия вы можете получить высокодетализированные автоматические прогнозы погоды по пунктам России, СНГ и мира в авиационном формате (включающие направление и скорость ветра, видимость, явления погоды, количество и форму облачности, нижнюю и верхнюю границу облачности).

Рекомендуем: http://teplo-dim.com/ купити електрокамін у львові - каміни електричні електрокаміни.

Погода в Елабуге - сегодня

Время (UTC), дата Ветер
(°,м/с) 
Видим.   Явления Облачность Т
(°С)
Тd
(°С)
f(%) Тe
(°С)
Pmin
(гПа)
dP
(гПа)
Po
(мм)
O2
(г/м3)
Тmin Tmax R s Состояние
почвы
00 17.10.17 270 (З) 5{10}  2000 м  слаб. крупа{ливн. осадки}  10/10 600 м кучево-дожд. 
[Cb cap]
+0.1 -0.4 96 -3  1018.7  0.7  758  305           
03 17.10.17 330 (СЗ) 4000 м  в посл. час ливневой снег  10/10 720 м кучево-дожд. 
[Cb cap]
+0.1 -0.4 96 -1  1020.4  1.7  759  306           
06 17.10.17 240 (ЮЗ) 4000 м  дым{ливн. осадки}  3/0 средняя, верхняя 
[Ac trans|Ci fib]
+4.1 -1.5 67 +3  1021.3  760  302           
09 17.10.17 170 (Ю) 20000 м    8/5 600 м кучево-дожд., средняя 
[Cb cap|Ac trans]
+0.9 -1.9 82 -1  1022  0.6  761  306    +4.6     
12 17.10.17 240 (ЮЗ) 20000 м    3/0 средняя 
[Ac trans]
-0.1 -7.9 56 -3  1023.7  1.7  762  308           
15 17.10.17 260 (З) 20000 м    4/0 средняя, верхняя 
[Ac trans|Ci fib]
-1.6 -8.9 57 -4  1025.3  1.5  763  310           
18 17.10.17 260 (З) 20000 м    1/0 верхняя 
[Ci fib]
-2.3 -9.1 60 -3  1026.9  1.5  764  311           
21 17.10.17 210 (ЮЗ) 20000 м    1/0 средняя 
[Ac trans]
-4 -8.3 72 -4  1027.4  0.5  764  313  -4      мокрый или
старый снег
50-90% 
00 18.10.17 170 (Ю) 20000 м    3/0 верхняя 
[Ci fib]
-2.2 -8.8 61 -3  1028.3  765  312  -5.6         
03 18.10.17 190 (Ю) 20000 м    ясно 
+2.6 -11.4 35 +1  1028.1  0.1  765  306           
06 18.10.17 260 (З) 20000 м    3/0 верхняя 
[Ci fib]
+3.9 -11.8 31 +3  1026.9  -1.1  764  305           
09 18.10.17 180 (Ю) 20000 м    10/0 средняя, верхняя 
[Ac trans|Ci fib]
+0.6 -14 33 1026.7  -0.3  764  308    +4.2       
12 18.10.17 160 (Ю) 20000 м    3/0 верхняя 
[Ci fib]
-1.1 -11.6 45 -3  1026.1  -0.6  764  310           
15 18.10.17 160 (Ю) 20000 м    8/0 верхняя 
[Ci fib]
-2.6 -11.1 52 -5  1025.6  -0.6  763  312           
18 18.10.17 160 (Ю) 20000 м    10/0 средняя, верхняя 
[Ac trans|Cs]
-2.2 -11.6 48 -5  1024.6  -1  762  311           
21 18.10.17 150 (ЮВ) 20000 м    10/3 1000 м средняя, верхняя 
[Sc|Ac trans|Cs]
-1.9 -11.4 48 -4  1023.5  -1.1  762  310  -3      мокрый или
старый снег
50-90% 
00 19.10.17 130 (ЮВ) 20000 м    10/3 1000 м средняя, верхняя 
[Sc|Ac trans|Cs]
+0.8 -9.2 47 1022.9  -0.5  761  307           
03 19.10.17 040 (СВ) 20000 м    10/0 средняя, верхняя 
[Ac trans|Cs]
+5 -10.5 32 +5  1021.7  -1.1  760  302           
06 19.10.17 040 (СВ) 20000 м    3/1 1000 м средняя 
[Sc|Ac trans]
+6.4 -9.9 30 +7  1020.3  -1.3  759  300           
09 19.10.17 050 (СВ) 20000 м    8/0 средняя, верхняя 
[Ac trans|Ci fib]
+3 -9.7 39 +4  1021.1  0.7  760  304    +6.4       
12 19.10.17 030 (СВ) 20000 м    ясно 
+0.1 -5.1 68 +1  1021.9  0.7  761  307           
15 19.10.17 тихо ()   20000 м    ясно 
-1.9 -4.3 84 -2  1022.3  0.4  761  309           
18 19.10.17 030 (СВ) 20000 м    ясно 
-2.6 -4.4 87 -2  1022.5  0.2  761  310           
21 19.10.17 360 (С) 10 км    ясно 
-3.9 -4.7 94 -3  1022.6  761  312  -4.1      мокрый или
старый снег
50-90% 
00 20.10.17 020 (С) 10 км    ясно 
-1.1 -3.3 85 -2  1022.8  0.3  761  308           
Время (UTC), дата Ветер
(°,м/с) 
Видим.   Явления Облачность Т
(°С)
Тd
(°С)
f(%) Тe
(°С)
Pmin
(гПа)
dP
(гПа)
Po
(мм)
O2
(г/м3)
Тmin Tmax R s Состояние
почвы

Для получения пояснительной информации подведите курсор к названию столбца.

ПОГОДА в Елабуге - архив

Всё, что Вы хотите узнать о погоде в Елабуге - удобно и подробно!

Выберите нужную дату (начиная с 1 января 2015* года) и нажмите кнопку "Найти".
Будут отображены архивные сводки погоды по пункту Елабуга, начиная с указанной даты.


Отображать данные в формате CSV (для использования в таблицах Excel)


Внимание! Наш архив погоды предназначен исключительно для личного некоммерческого использования в познавательных целях. Если Вам необходимы официальные справки о состоянии погоды (для производственных, юридических, коммерческих и т.п. целей), обращайтесь в органы Росгидромета.

*Примечание: данная дата относится к архиву по метеостанциям СССР (Россия, СНГ, Балтия).
Архив по метеостанциям Зарубежной Европы и Азии (кроме Китая) хранится 10 дней, по другим регионам земного шара (Китай, Африка, Америка, Австралия, Океания) - 1 день.

Елабуга - район местоположения метеостанции


Название, широта, долгота, высота метеостанции:
Елабуга 48.8°ш. 135.9°д. 58 м над ур. моря [Российская Федерация]

Дополнительная информация

В oтличие oт бoльшинства пoгoдных сайтoв мы публикуем пoдрoбную метеoинфoрмацию в детальнoм прoфессиoнальнoм фoрмате.

Характеристики температуры и влажнoсти вoздуха измеряются на высoте 2 м в тени вдали oт зданий и деревьев.
Скoрoсть ветра измеряется на высoте 10 м (на урoвне рoста челoвека скoрoсть ветра ниже в 1.5-2 раза). Если метеoстанция нахoдится в гoрoде или в лесу, тo скoрoсть ветра занижена на 2-4 м/с пo сравнению с oткрытым местoм. Скoрoсть ветра над акватoриями крупных рек и oзёр, а также на вершинах хoлмoв на 2-5 м/с выше, чем в oбычных услoвиях.
Атмoсфернoе давление в разных тoчках местнoсти мoжет значительнo oтличаться oт давления на метеoстанции, в зависимoсти oт услoвий рельефа (при пoдъёме на 10 м давление пoнижается примернo на 1 мм рт.ст.).